Regional Weather Roundup
Issued by NWS Charleston, WV

Home | Current Version | Previous Version | Graphics & Text | Print | Product List | Glossary On
Versions: 1 2 3 4 5 6 7 8 9 10 11 12 13 14 15 16 17 18 19 20 21 22 23 24 25 26 27
000
ASUS41 KRLX 190610
RWRRLX
West Virginia Regional Weather Roundup
National Weather Service Charleston WV
100 AM EST FRI JAN 19 2018

Note: "fair" indicates few or no clouds below 12,000 feet with no
significant weather and/or obstructions to visibility.

WVZ003-190700-
Northern Panhandle of West Virginia

CITY           SKY/WX    TMP DP  RH WIND       PRES   REMARKS
WHEELING         N/A     23   9  55 SW14G23   30.10F
$$

WVZ009-190700-
Northwest West Virginia

CITY           SKY/WX    TMP DP  RH WIND       PRES   REMARKS
PARKERSBURG      N/A     25  10  53 S9        30.22F
$$

WVZ006-190700-
Western West Virginia

CITY           SKY/WX    TMP DP  RH WIND       PRES   REMARKS
HUNTINGTON       N/A     26  10  50 S8        30.24F
$$

WVZ015-190700-
West Central West Virginia

CITY           SKY/WX    TMP DP  RH WIND       PRES   REMARKS
CHARLESTON       N/A     26  10  50 SW6       30.23F
$$

WVZ022-031-190700-
North Central West Virginia

CITY           SKY/WX    TMP DP  RH WIND       PRES   REMARKS
CLARKSBURG       N/A     26   9  48 SW8       30.18F
MORGANTOWN       N/A     26   8  46 SW10G17   30.16F
$$

WVZ025-035-042-045-190700-
Southern West Virginia

CITY           SKY/WX    TMP DP  RH WIND       PRES   REMARKS
BECKLEY          N/A     20   8  60 SW9       30.19F WCI   9
LOGAN            N/A     25  12  58 CALM      30.23F
BLUEFIELD        N/A     21   4  47 W8        30.19F
LEWISBURG        N/A     24   8  49 S5        30.20F
$$

WVZ047-190700-
Northern Mountains of West Virginia

CITY           SKY/WX    TMP DP  RH WIND       PRES   REMARKS
ELKINS           N/A     25   7  46 S9        30.15F
$$

WVZ052-190700-
Eastern Panhandle of West Virginia

CITY           SKY/WX    TMP DP  RH WIND       PRES   REMARKS
MARTINSBURG      N/A     33  12  41 W9G20     30.07F
PETERSBURG       N/A     36   9  32 S8        30.12F
$$




USA.gov is the U.S. government's official web portal to all federal, state and local government web resources and services.